ECHOSTAR 21

Last updated on Aug. 3, 2020, 5:32 a.m. UTC

1 42749U 17032A   20215.57011679  .00000054  00000-0  00000-0 0  9994
2 42749   5.4078 312.4382 0002284 177.0422  37.6153  1.00273293 11604
UTC
Height (km)
Latitude
Longitude
Inclination
Orbital Period
UTC large
Height (km)
Speed (km/s)
/
Latitude / Longitude
Inclination (degrees)
Orbital Period (minutes)
Azimuth
Elevation
Range (km)
Doppler Factor
iOS Compass Heading
iOS Angle

Next 30 passes for location: Hong Kong

Rise time Rise Azimuth (degrees) Set time Set Azimuth (degrees) Duration Max altitude (degrees)

No matching passes for this satellites